Location: Alumbaugh
(37.5976°N, 83.9299°W)
Time: 01:46:47
(UTC+00:00)

Oscar 11 - Pass Details

Date: 01 April 2023
Orbit: 609 x 619 km, 97.7° (Epoch: 07 June)

Event Time Altitude Azimuth Distance (km) Brightness Sun altitude
Rises 09:20:18 0° 24° (NNE) 2,878 11.2 -23.8°
Reaches altitude 10° 09:22:43 10° 35° (NE) 1,971 10.5 -23.4°
Maximum altitude 09:26:29 30° 97° (E) 1,112 8.9 -22.7°
Drops below altitude 10° 09:30:14 10° 158° (SSE) 1,962 9.6 -22.0°
Enters shadow 09:31:50 - 167° (SSE) 2,558 10.1 -21.7°
